This is the latest recevied weather packets stored in our database for station/object DK4MDA-13. If no packets are shown the sender has not sent any weather packets the latest 10 day(s).
| Time | Temp. | Humidity | Pressure | Rain* | Wind** | Luminosity | Snow |
|---|---|---|---|---|---|---|---|
| 1777372041 | 15° C | 35% | 1026 hPa | 0 mm | - | - | - |
| 1777371741 | 15° C | 35% | 1025.8 hPa | 0 mm | - | - | - |
| 1777371441 | 15° C | 36% | 1025.8 hPa | 0 mm | - | - | - |
| 1777371141 | 15.56° C | 35% | 1025.9 hPa | 0 mm | - | - | - |
| 1777370841 | 15° C | 39% | 1025.7 hPa | 0 mm | - | - | - |
| 1777370541 | 15° C | 39% | 1025.8 hPa | 0 mm | - | - | - |
| 1777370241 | 15° C | 38% | 1025.9 hPa | 0 mm | - | - | - |
| 1777369941 | 15° C | 38% | 1025.8 hPa | 0 mm | - | - | - |
| 1777369641 | 14.44° C | 38% | 1025.7 hPa | 0 mm | - | - | - |
| 1777369341 | 14.44° C | 38% | 1025.6 hPa | 0 mm | - | - | - |
| 1777369041 | 14.44° C | 39% | 1025.5 hPa | 0 mm | - | - | - |
| 1777368741 | 13.89° C | 38% | 1025.8 hPa | 0 mm | - | - | - |
| 1777368441 | 13.89° C | 40% | 1025.7 hPa | 0 mm | - | - | - |
| 1777368141 | 13.89° C | 40% | 1025.8 hPa | 0 mm | - | - | - |
| 1777367841 | 13.33° C | 41% | 1026 hPa | 0 mm | - | - | - |
| 1777367541 | 13.33° C | 40% | 1025.8 hPa | 0 mm | - | - | - |
| 1777367241 | 13.33° C | 40% | 1025.7 hPa | 0 mm | - | - | - |
| 1777366941 | 13.33° C | 42% | 1025.7 hPa | 0 mm | - | - | - |
| 1777366641 | 12.78° C | 42% | 1025.8 hPa | 0 mm | - | - | - |
| 1777366341 | 12.78° C | 42% | 1025.8 hPa | 0 mm | - | - | - |
| 1777366041 | 12.78° C | 43% | 1025.7 hPa | 0 mm | - | - | - |
| 1777365741 | 12.78° C | 44% | 1025.7 hPa | 0 mm | - | - | - |
| 1777365441 | 12.78° C | 44% | 1025.7 hPa | 0 mm | - | - | - |
| 1777365141 | 12.22° C | 43% | 1025.8 hPa | 0 mm | - | - | - |
| 1777364841 | 12.22° C | 42% | 1025.7 hPa | 0 mm | - | - | - |
* Rain latest hour (hover to see other rain measurements)
** Current wind speed in m/s (hover to see current wind gust speed)